Regional Weather Roundup
Issued by NWS

Home | Current Version | Previous Version | Text Only | Print | Product List | Glossary On
Versions: 1 2 3 4 5 6 7 8 9 10 11 12 13 14 15 16 17 18 19 20 21 22 23 24 25 26 27 28 29 30 31 32 33 34 35 36 37 38 39 40 41 42 43 44 45 46 47 48 49 50
292
ASHW40 PHFO 222312
RWRHI

WEATHER ROUNDUP FOR HAWAII
NATIONAL WEATHER SERVICE HONOLULU HI
100 PM HST WED FEB 22 2017

THIS IS AN AUTOMATED REPORT THAT HAS NOT BEEN QUALITY CONTROLLED.

NOTE..."FAIR" INDICATES FEW OR NO CLOUDS BELOW 12,000 FEET WITH NO
SIGNIFICANT WEATHER AND/OR OBSTRUCTIONS TO VISIBILITY.

* - THESE SITES REPORT LIMITED FIELDS

HIZ001>004-230000-
KAUAI-NIIHAU-

CITY           SKY/WX    TMP DP  RH WIND       PRES   REMARKS
LIHUE APT      CLOUDY    77  60  55 NE17      30.24F
PORT ALLEN*      N/A     79 N/A N/A NE24G35     N/A
POIPU*           N/A     79 N/A N/A NE10G21     N/A
PRINCEVILLE*     N/A     75 N/A N/A E12G20      N/A
KOKOLE POINT*  NOT AVBL
MOLOAA DAIRY*    N/A     79  61  53 E6G15       N/A
WAIMEA HTS*    NOT AVBL
PUU OPAE*      NOT AVBL
PUU LUA*       NOT AVBL
MAKAHA RIDGE*  NOT AVBL
$$

HIZ005>011-230000-
OAHU-

CITY           SKY/WX    TMP DP  RH WIND       PRES   REMARKS
HONOLULU       MOSUNNY   79  58  48 NE16G26   30.20F
KALAELOA       MOSUNNY   81  59  47 NE12G22   30.21F
KANEOHE MCB    NOT AVBL
WHEELER FIELD  MOSUNNY   74  59  59 E12       30.21F
BELLOWS*       NOT AVBL
KAHUKU*        NOT AVBL
WHEELER*       NOT AVBL
WAIANAE HARBOR NOT AVBL
DILLINGHAM*    NOT AVBL
KAHUKU TRN*      N/A     68  52  56 W12G26      N/A
KAWAILOA*        N/A     72  59  64 E15G35      N/A
KII*             N/A     75  61  60 E21G28      N/A
MAKUA RANGE*     N/A     81  59  47 W12G21      N/A
OAHU FOREST NW NOT AVBL
SCHOFIELD BRK*   N/A     61  45  55 MISG        N/A
SCHOFIELD S*   NOT AVBL
WAIANAE VLY*   NOT AVBL
KUAOKALA*      NOT AVBL
HONOULIUULI*   NOT AVBL
MOKUOLOE IS*   NOT AVBL
PALEHUA*       NOT AVBL
WAIAWA PHB*    NOT AVBL
$$

HIZ012>013-230000-
MOLOKAI-

CITY           SKY/WX    TMP DP  RH WIND       PRES   REMARKS
MOLOKAI AIRPT  MOSUNNY   78  59  51 NE21G37   30.19F
KALAUPAPA      NOT AVBL
MAKAPULAPAI*   NOT AVBL
MOLOKAI 1*     NOT AVBL
PUU ALII*      NOT AVBL
$$

HIZ016-230000-
KAHOOLAWE-

CITY           SKY/WX    TMP DP  RH WIND       PRES   REMARKS
KAHOOLAWE*     NOT AVBL
HAKIOAWA*      NOT AVBL
HONOKANAIA*      N/A     77  59  53 NE21G35   30.14F
KANELOA*         N/A     75  61  60 E25G36    30.26F
KEALIALALO*    NOT AVBL
LUA MAKIKA*    NOT AVBL
$$

HIZ014>015-230000-
LANAI-

CITY           SKY/WX    TMP DP  RH WIND       PRES   REMARKS
LANAI CITY       N/A     74  57  55 NE16      30.21F
LANAI 1*       NOT AVBL
$$

HIZ017>028-230000-
MAUI-

CITY           SKY/WX    TMP DP  RH WIND       PRES   REMARKS
KAHULUI        MOSUNNY   79  60  52 E18G32    30.19F
KAPALUA-W MAUI MOSUNNY   77  57  50 NE23G35   30.19F
HANA AIRPORT   PTSUNNY   72  64  78 NE9       30.25F
HANA*            N/A     75 N/A N/A NE12G21     N/A
HALEAKALA SUMM   N/A     52  19  28 SW5G18      N/A
MAALAEA BAY*   NOT AVBL
HALEAKALA*     NOT AVBL
KAUPO GAP*     NOT AVBL
KULA 1*          N/A     59  50  71 W6          N/A
$$

HIZ023>026-230000-
BIG ISLAND OF HAWAII COAST AND LOWER SLOPES-

CITY           SKY/WX    TMP DP  RH WIND       PRES   REMARKS
KAILUA KONA    MOSUNNY   79  63  57 SW10      30.13F
HILO           PTSUNNY   78  55  44 NE12      30.21F
HONOKAA*         N/A     70 N/A N/A VRB1        N/A
KAWAIHAE MWT*    N/A     81 N/A N/A W13         N/A
KAWAIHAE*      NOT AVBL
SOUTH POINT*     N/A     75 N/A N/A VRB23G35    N/A
UPOLU AIRPORT* NOT AVBL
KAMUELA*       PTCLDY    70  55  60 NE23      30.23F
HAKALAU*         N/A     53  51  94 E5          N/A
KALOKO-HONOKO* NOT AVBL
PALI 2*          N/A     68  54  60 SW26G36     N/A
KEALAKOMO*       N/A     82  54  36 N22G33      N/A
KAUPULEHU*     NOT AVBL
KAPAPALA*        N/A     78  56  47 SE12G26     N/A
LOWER KAHUKU*  NOT AVBL
PUHE CS*       NOT AVBL
PUHO CS*       NOT AVBL
PTA KEAMUKU*     N/A     64  52  63 CALM        N/A
WAIKOLOA*      NOT AVBL
$$

HIZ027>028-230000-
BIG ISLAND OF HAWAII INTERIOR AND SUMMMITS-

CITY           SKY/WX    TMP DP  RH WIND       PRES   REMARKS
BRADSHAW FIELD SUNNY     64  42  45 SW12G17   30.40F
MK VISITOR CEN   N/A     50  10  20 S12         N/A
MAUNA KEA*       N/A     28  10  47 NE2         N/A
MAUNA LOA*       N/A    N/A N/A N/A MISG        N/A
MAUNA LOA 1*   NOT AVBL
PTA KIPUKA*      N/A    N/A N/A N/A NW8G17      N/A
PTA RANGE 17*    N/A     66  36  32 SE5G18      N/A
PTA WEST*        N/A     70  50  49 NW12G24     N/A
NENE CABIN*    NOT AVBL
AHUMOA*        NOT AVBL
PTA PORTABLE*  NOT AVBL
PUU MALI*        N/A    N/A N/A N/A NE13G21     N/A
$$

HIC003-230000-
NORTHWEST ISLANDS-

CITY           SKY/WX    TMP DP  RH WIND       PRES   REMARKS
MIDWAY ISLAND  MOSUNNY   72  70  94 S23       30.13F FOG
MIDWAY NOS*    NOT AVBL
FRENCH FRIGATE NOT AVBL
$$

PHZ110>124-180-230000-
BUOY REPORTS

STATION/POSITION TIME  TEMP    WIND        PRES    WAVE   SWELL
                       AIR SEA DIR/SP/G            HT/PER HT/DIR
                 (UTC) (F)     (DEG/KT/KT) (MB)    (FT/S) (FT/D)
BUOY 51001       2250   71      80/ 14/ 19 1025.7F   7/14   5/320
BUOY 51101       2250   71 72   70/ 16/ 17 1026.0F   7/15   5/280
BUOY 51100       NOT AVBL
BUOY 51002       2250   76 77   50/ 21/ 27 1019.4F  10/ 9   7/ 80
BUOY 51003       2150   75 77   70/ 17/ 21 1021.8    9/ 8   5/230
BUOY 51004       2150      77   60/ 19/ 23 1020.1   11/ 9   7/ 70
BARBERS PT BUOY  NOT AVBL
WAIMEA BAY BUOY  2302      74                N/A     6/ 9   2/360
KAILUA BAY BUOY  2234      75                N/A     8/ 7   2/ 20
LANAI BUOY       2245      76                N/A     3/ 8
BARBERS PT 2     NOT AVBL
PAUWELA MAUI     2239      75                N/A     8/ 8   2/ 10
HILO             2242      76                N/A     9/ 8   2/ 10
KANEOHE BAY BUOY 2236      75                N/A     7/ 8   2/ 20
HANALEI KAUAI    2252      76                N/A     8/ 8   3/300
KAHULUI HARBOR   2248           50/ 19/ 26   N/A
HONOLULU HARBOR  2248           70/  7/ 13   N/A
KILO NALU        NOT AVBL
HILO HARBOR      2248           40/  9/ 13   N/A
MOKUOLOE         2236   74 74   60/ 13/ 17 1023.9F
NAWILIWILI       2248   75      60/ 14/ 18 1023.7F
WHOTS BUOY       NOT AVBL
BUOY 51028       NOT AVBL
$$

......................KEY........................................
  SKY/WX - SKY CONDITIONS/PRESENT WEATHER
  TMP    - TEMPERATURE IN FAHRENHEIT
  DWPT   - DEWPOINT IN FAHRENHEIT
  RH     - RELATIVE HUMIDITY IN PERCENT
  WIND   - DIRECTION AND SPEED /MPH FOR ISLANDS...KTS FOR BUOYS/
  PRES   - MEAN SEA LEVEL PRESSURE IN INCHES OF HG
  VSB    - VISIBILITY IN MILES
  HX     - HEAT INDEX
  WCI    - WIND CHILL INDEX
  VRB    - VARIABLE WIND DIRECTION
  N/A    - NOT AVAILABLE




USA.gov is the U.S. government's official web portal to all federal, state and local government web resources and services.